TIME,PRES,T(CTD),SAL,OXYGEN,RAWTEMP,T(OPTODE),TCPHASE,CHECK
1450193585,129.1100006103515600,17.7092990875244140,36.2565002441406250,255.7407989501953000,325.5842895507812500,17.7175807952880860,31.1032295227050780,55051
1450193608,126.6600036621093800,17.7133007049560550,36.2565002441406250,256.2796936035156000,325.5797119140625000,17.7177200317382800,31.0797500610351560,35790
1450193629,124.4499969482421900,17.7143993377685550,36.2569007873535160,256.5491027832031000,325.5275878906250000,17.7193298339843750,31.0673294067382800,29265
1450193650,122.1600036621093800,17.7159004211425780,36.2554016113281250,256.8987121582031000,325.4320068359375000,17.7222900390625000,31.0508899688720700,11189
1450193693,117.5500030517578100,17.7201995849609380,36.2547988891601560,257.6386108398437500,325.3908996582031000,17.7235603332519530,31.0181007385253900,12311
1450193714,115.2399978637695300,17.7194004058837900,36.2559013366699200,257.8041076660156000,325.3255004882812500,17.7255802154541000,31.0102005004882800,36908
1450193810,105.2099990844726600,17.7255001068115230,36.2561988830566400,258.3219909667969000,325.1818847656250000,17.7300090789794920,30.9858608245849600,50270
1450193853,101.0400009155273400,17.7292003631591800,36.2569007873535160,258.3265991210937500,324.1788024902344000,17.7610092163085940,30.9720706939697270,8199
1450193981,91.7900009155273400,17.7826004028320300,36.2696990966796900,258.9587097167969000,322.9162902832031000,17.8000202178955080,30.9278106689453120,26501
1450194037,88.3600006103515600,17.7970008850097660,36.2710990905761700,259.1995849609375000,322.9849853515625000,17.7978992462158200,30.9184207916259770,19419
1450194080,84.7900009155273400,17.8024997711181640,36.2725982666015600,259.1947937011719000,322.7002868652344000,17.8066997528076170,30.9147396087646500,35094
1450194101,82.4499969482421900,17.8083000183105470,36.2742996215820300,259.2868957519531000,322.5805969238281000,17.8103904724121100,30.9092998504638670,32630
1450194145,77.9599990844726600,17.7852993011474600,36.2706985473632800,259.3255920410156000,322.4560852050781000,17.8142395019531250,30.9059791564941400,24258
1450194167,75.9700012207031200,17.8220005035400400,36.2774009704589840,259.3330078125000000,322.0899047851562500,17.8255596160888670,30.9008197784423830,64664
1450194188,74.0400009155273400,17.8227005004882800,36.2785987854003900,259.4460144042969000,322.0780944824219000,17.8259201049804700,30.8956298828125000,30346
1450194209,72.1200027465820300,17.8218994140625000,36.2775993347168000,259.5300903320312500,322.0939025878906000,17.8254299163818360,30.8923606872558600,42000
1450194230,70.3499984741211000,17.8197994232177730,36.2773017883300800,259.5538940429687500,321.9627990722656000,17.8294792175292970,30.8894996643066400,51793
1450194275,66.6699981689453100,17.8157997131347660,36.2767982482910160,259.6809997558594000,322.1911926269531000,17.8224296569824220,30.8870792388916000,55271
1450194325,62.3800010681152340,17.8194999694824220,36.2789001464843750,259.8277893066406000,322.1146850585937500,17.8247890472412100,30.8798408508300780,45407
1450194346,60.7799987792968750,17.8197002410888670,36.2789993286132800,259.8859863281250000,322.0942993164062500,17.8254203796386720,30.8772296905517580,47166
1450194409,56.0099983215332000,17.8204002380371100,36.2789001464843750,260.0187988281250000,322.1271972656250000,17.8243999481201170,30.8718299865722660,36658
1450194475,50.0299987792968750,17.8173999786376950,36.2792015075683600,260.1473999023437500,322.1854858398437500,17.8225994110107420,30.8670597076416000,14213
1450194498,47.7200012207031250,17.8167991638183600,36.2787017822265600,260.0891113281250000,322.1293945312500000,17.8243408203125000,30.8689994812011720,23451
1450194520,45.3800010681152340,17.8192005157470700,36.2793006896972660,260.1145019531250000,322.1632080078125000,17.8232898712158200,30.8683204650878900,21682
1450194564,40.0400009155273440,17.8164997100830080,36.2784996032714840,260.1239013671875000,322.1624145507812500,17.8233203887939450,30.8677597045898440,2061
1450194586,37.1500015258789060,17.8181991577148440,36.2789001464843750,260.1773071289062500,322.1205139160156000,17.8246097564697270,30.8650398254394530,26871
1450194608,34.2500000000000000,17.8201007843017580,36.2784996032714840,260.1471862792969000,322.1427001953125000,17.8239307403564450,30.8667106628417970,16209
1450194662,27.6000003814697270,17.8066997528076170,36.2756996154785160,260.3364868164062500,322.4791870117187500,17.8135299682617200,30.8628902435302730,35538
1450194704,22.9300003051757800,17.8068008422851560,36.2757987976074200,260.3915100097656000,322.4772033691406000,17.8135890960693360,30.8605308532714840,9518
1450194726,20.3899993896484380,17.8071994781494140,36.2760009765625000,260.3944091796875000,322.5385131835937500,17.8117008209228500,30.8613204956054700,46078
1450194748,18.0699996948242200,17.8057003021240230,36.2761993408203100,260.5322875976562500,322.4884033203125000,17.8132495880126950,30.8548393249511720,49080
1450194812,12.6800003051757810,17.8078994750976560,36.2769012451171900,260.6318054199219000,322.4007873535156000,17.8159503936767580,30.8493690490722660,13348
1450194904,8.7100000381469730,17.8027000427246100,36.2783012390136700,260.7102050781250000,322.5892944335937500,17.8101291656494140,30.8486309051513670,12316
1450278091,289.6799926757812500,15.4335002899169920,36.0592002868652340,233.0485992431640600,399.0650939941406000,15.4376697540283200,33.1904106140136700,50979
1450278249,277.1300048828125000,15.5295000076293950,36.0721015930175800,231.9741058349609400,396.0252075195312500,15.5324201583862300,33.2000198364257800,63262
1450278294,272.7399902343750000,15.5622997283935550,36.0769004821777340,232.2613983154297000,394.9920043945312500,15.5646095275878900,33.1706504821777340,64344
1450278315,270.7999877929687500,15.5797996520996100,36.0792007446289060,232.2543945312500000,394.1619873046875000,15.5904703140258790,33.1589698791503900,59222
1450278336,268.8599853515625000,15.6110000610351560,36.0829010009765600,232.2360992431640600,393.1846008300781000,15.6209201812744140,33.1458702087402340,25641
1450278357,266.9899902343750000,15.6206998825073240,36.0848007202148440,232.1468963623047000,392.9498901367187500,15.6282300949096680,33.1465797424316400,48598
1450278378,265.1099853515625000,15.6254997253417970,36.0848999023437500,232.0644989013672000,392.9646911621094000,15.6277704238891600,33.1513290405273440,12878
1450278423,261.2399902343750000,15.6729001998901370,36.0903015136718750,231.6282958984375000,391.2532958984375000,15.6810598373413090,33.1483306884765600,3512
1450278444,259.5000000000000000,15.7091999053955080,36.0938987731933600,231.1365051269531200,389.8729858398437500,15.7240400314331050,33.1527900695800800,57484
1450278494,255.5000000000000000,15.7911996841430660,36.1017990112304700,230.0157012939453000,387.7007141113281000,15.7916603088378900,33.1778411865234400,21965
1450278547,251.3600006103515600,15.7979001998901370,36.1038017272949200,229.5462951660156200,387.1379089355469000,15.8091697692871100,33.1931190490722660,160
1450278597,247.6999969482422000,15.8501996994018550,36.1043014526367200,228.5608978271484400,385.4755859375000000,15.8608999252319340,33.2190589904785160,20533
1450278711,239.9900054931640600,16.0286998748779300,36.1254005432128900,226.4889068603515600,378.7232971191406000,16.0708904266357420,33.2271194458007800,36164
1450278757,236.2899932861328000,16.2521991729736330,36.1654014587402340,226.1371002197265600,372.6413879394531000,16.2598705291748050,33.1580581665039060,12278
1450278778,234.4700012207031200,16.2947998046875000,36.1754989624023440,226.0814971923828000,371.1192932128906000,16.3071403503417970,33.1387290954589840,21699
1450278833,229.6000061035156200,16.3808994293212900,36.1839981079101560,226.0249938964843800,367.3817138671875000,16.4231891632080080,33.0883598327636700,7907
1450278879,224.9600067138672000,16.5196990966796880,36.2099990844726560,225.1759033203125000,363.8746032714844000,16.5320205688476560,33.0816688537597660,45359
1450278997,212.2599945068359400,17.0862007141113280,36.3171005249023440,219.3827056884765600,344.5161132812500000,17.1319904327392580,33.1083106994628900,33151
1450279018,210.2200012207031200,17.2173995971679700,36.3359985351562500,218.3654022216797000,340.8254089355469000,17.2462291717529300,33.1096992492675800,51109
1450279139,198.6199951171875000,17.3659992218017580,36.2910003662109400,232.1170959472656200,336.9371032714844000,17.3665504455566400,32.3535499572753900,31982
1450279213,192.6499938964843800,17.5037994384765620,36.2759017944335940,238.6197967529297000,332.2589111328125000,17.5112400054931640,31.9743099212646500,51139
1450279263,188.7700042724609400,17.6096000671386720,36.2738990783691400,246.6325073242187500,329.1265869140625000,17.6080894470214840,31.5579395294189450,196
1450279284,187.0899963378906200,17.6089992523193360,36.2734985351562500,248.9902038574218800,329.0304870605469000,17.6110591888427730,31.4499301910400400,16369
1450279305,185.4299926757812500,17.6075000762939450,36.2736015319824200,251.1219940185547000,329.0423889160156000,17.6106891632080080,31.3542900085449220,51499
1450279361,180.7100067138672000,17.6072006225585940,36.2725982666015600,254.2209014892578000,329.0104980468750000,17.6116790771484380,31.2163391113281250,28865
1450279405,176.2599945068359400,17.6054000854492200,36.2717018127441400,255.5205993652343800,329.0042114257812500,17.6118698120117200,31.1593093872070300,49161
1450279426,173.9700012207031200,17.6070995330810550,36.2729988098144500,255.8260040283203000,329.0332946777344000,17.6109695434570300,31.1460990905761720,51527
1450279449,171.5000000000000000,17.6047992706298830,36.2718009948730500,256.1795959472656000,328.9294128417969000,17.6141891479492200,31.1292705535888670,18255
1450279492,166.9799957275390600,17.6049003601074220,36.2709999084472660,256.6661071777344000,328.9601135253906000,17.6132392883300780,31.1086807250976560,20867
1450279513,164.8399963378906200,17.6056995391845700,36.2708015441894500,256.8187866210937500,329.0490112304687500,17.6104907989501950,31.1032390594482420,59560
1450279534,162.6300048828125000,17.6033000946044920,36.2703018188476560,256.8763122558594000,329.0198059082031000,17.6113891601562500,31.1001701354980470,15120
1450279555,160.4799957275390600,17.6075000762939450,36.2711982727050800,256.9939880371094000,328.9874877929687500,17.6123905181884770,31.0948200225830080,32696
1450279610,154.8899993896484400,17.6053009033203120,36.2714996337890600,257.2506103515625000,329.0335998535156000,17.6109695434570300,31.0840206146240230,42570
1450279652,151.1300048828125000,17.6037006378173830,36.2708015441894500,257.4642028808594000,329.0831909179687500,17.6094303131103500,31.0757007598876950,3647
1450279673,149.4900054931640600,17.6032009124755860,36.2705993652343750,257.4761047363281000,329.1813964843750000,17.6063995361328120,31.0763301849365230,6144
1450279725,145.5899963378906200,17.5993995666503900,36.2690010070800800,257.6766052246094000,329.1989135742187500,17.6058502197265620,31.0680007934570300,439
1450279805,139.5500030517578000,17.5977001190185550,36.2683982849121100,257.8210144042969000,329.2717895507812500,17.6035995483398440,31.0627593994140620,49130
1450279860,135.3099975585937500,17.5926990509033200,36.2672996520996100,258.0444030761719000,329.5884094238281000,17.5938091278076170,31.0573101043701170,42526
1450279904,131.4900054931640600,17.5835990905761720,36.2639999389648440,258.3016967773437500,329.7825012207031000,17.5878105163574220,31.0487098693847660,45428
1450279925,129.5599975585937500,17.5825004577636720,36.2629013061523440,258.4083862304687500,329.6950073242187500,17.5905208587646500,31.0431499481201170,1259
1450279949,127.3199996948242200,17.5897006988525400,36.2640991210937500,258.4299926757812500,329.5307922363281000,17.5956001281738280,31.0398292541503900,45715
1450279991,123.5199966430664000,17.5890998840332030,36.2639007568359400,258.4887084960937500,329.3841857910156000,17.6001300811767580,31.0352993011474600,58390
1450280012,121.5899963378906200,17.5944995880126950,36.2655982971191400,258.5846862792969000,329.3485107421875000,17.6012306213378900,31.0305805206298830,63529
1450280033,119.6600036621093800,17.5946998596191400,36.2652015686035160,258.5625000000000000,329.3174133300781000,17.6021900177001950,31.0313205718994140,6508
1450280055,117.6900024414062500,17.6021995544433600,36.2659988403320300,258.4873046875000000,328.9440917968750000,17.6137294769287100,31.0293998718261720,16047
1450280078,115.6299972534179700,17.6173992156982420,36.2686996459960940,258.5495910644531000,328.6911010742187500,17.6215496063232420,31.0234508514404300,28171
1450280128,111.2799987792968800,17.6215000152587900,36.2692985534668000,258.6130981445312500,328.4624023437500000,17.6286201477050780,31.0175800323486330,57
1450280149,109.4599990844726600,17.6247997283935550,36.2695999145507800,258.4812927246094000,328.2557067871094000,17.6350097656250000,31.0204200744628900,54466
1450280191,105.7300033569336000,17.6282997131347660,36.2700996398925800,258.7087097167969000,328.2620849609375000,17.6348094940185550,31.0108108520507800,47444
1450280243,101.4100036621093800,17.6441001892089840,36.2714996337890600,258.7560119628906000,327.7284851074219000,17.6513099670410160,31.0014305114746100,20144
1450280264,99.6900024414062500,17.6532993316650400,36.2729988098144500,258.6972045898437500,327.3963012695312500,17.6615791320800780,30.9994297027587900,14676
1450280444,85.3399963378906200,17.7584991455078120,36.2841987609863300,258.8598022460937500,323.8720092773437500,17.7704906463623050,30.9449901580810550,23462
1450280468,83.3499984741211000,17.7884998321533200,36.2877998352050800,258.6986083984375000,322.2229919433594000,17.8214397430419920,30.9297103881835940,25569
1450280489,81.4499969482421900,17.8945999145507800,36.3007011413574200,258.2579040527344000,319.5125122070312500,17.9051799774169920,30.9123897552490230,2461
1450280531,77.0000000000000000,17.9104995727539060,36.3027000427246100,258.3655090332031000,319.0354003906250000,17.9199104309082030,30.9012508392334000,60796
1450280552,74.8300018310546900,17.9370002746582030,36.3055992126464840,258.3035888671875000,318.6458129882812500,17.9319496154785160,30.8987693786621100,61118
1450280574,72.3499984741211000,17.9379005432128900,36.3063011169433600,258.3015136718750000,318.3041076660156000,17.9424991607666000,30.8942794799804700,42571
1450280692,57.6599998474121100,17.8999004364013670,36.3026008605957000,258.6617126464844000,319.3205871582031000,17.9111003875732420,30.8925209045410160,62845
1450280713,55.2099990844726560,17.9080009460449220,36.3036003112793000,258.6741943359375000,319.3349914550781000,17.9106597900390620,30.8920097351074220,49529
1450280835,44.2799987792968750,18.0153999328613280,36.3120002746582000,258.0119934082031000,315.9056091308594000,18.0165691375732420,30.8747291564941400,22083
1450280859,42.4099998474121100,18.0202999114990230,36.3129005432128900,257.9122009277344000,315.6671142578125000,18.0239391326904300,30.8757305145263670,20638
1450280934,36.4000015258789060,18.0025997161865230,36.3117980957031250,258.1109924316406000,316.1297912597656000,18.0096492767334000,30.8733997344970700,24004
1450281085,25.2099990844726560,18.0230007171630860,36.3138008117675800,257.9628906250000000,315.0874938964844000,18.0418395996093750,30.8658199310302730,59596
1450281201,14.1999998092651370,18.3472003936767580,36.3540992736816400,254.4709014892578000,305.2521057128906000,18.3454208374023440,30.8859691619873050,47445
1450281251,8.5600004196167000,18.3306007385253900,36.3587989807128900,254.0057983398437500,305.3537902832031000,18.3422908782959000,30.9074707031250000,9827
1450364498,292.2799987792969000,15.7047004699707030,36.1006011962890600,227.0518035888672000,390.0096130371094000,15.7197904586792000,33.3618888854980500,47886
1450364540,287.8999938964844000,15.8097000122070310,36.1158981323242200,224.6737976074218800,386.7943115234375000,15.8198699951171880,33.4375915527343750,58601
1450364562,285.5700073242187500,15.8604001998901370,36.1237983703613300,223.2704010009765600,384.8775024414062500,15.8795099258422850,33.4828109741210940,54409
1450364583,283.2699890136719000,15.8999996185302730,36.1278991699218750,221.6472930908203000,383.0144042968750000,15.9374599456787110,33.5406799316406250,58185
1450364604,280.9100036621094000,16.0114994049072270,36.1469001770019500,220.1611022949218800,380.4104003906250000,16.0184402465820300,33.5816001892089840,21875
1450364659,275.1900024414062500,16.0900001525878900,36.1570014953613300,219.6800994873047000,378.0686950683594000,16.0912399291992200,33.5729103088378900,32407
1450364700,271.4299926757812500,16.1439990997314450,36.1627006530761700,220.6260986328125000,376.3807983398437500,16.1436996459960940,33.4985008239746100,12269
1450364722,269.4700012207031000,16.1669998168945300,36.1679992675781250,220.8771972656250000,375.1777038574219000,16.1810798645019530,33.4678382873535160,40466
1450364743,267.6600036621094000,16.2236995697021500,36.1790008544921900,220.7402038574218800,373.3456115722656000,16.2380008697509770,33.4486885070800800,18448
1450364816,261.2900085449219000,16.3108997344970700,36.1918983459472660,220.2875061035156200,370.8947143554687500,16.3141193389892580,33.4369010925293000,51265
1450364838,259.3699951171875000,16.3237991333007800,36.1944007873535160,220.0057067871093800,370.4859008789062500,16.3268108367919920,33.4461898803710940,46641
1450364859,257.5199890136719000,16.3353996276855470,36.1966018676757800,219.6737060546875000,369.8486022949219000,16.3465995788574220,33.4547195434570300,4246
1450364880,255.6799926757812500,16.3899002075195300,36.2076988220214840,218.6605987548828000,367.7334899902344000,16.4122695922851560,33.4780616760253900,64355
1450364903,253.6000061035156200,16.4265995025634770,36.2158012390136700,218.1282958984375000,367.3121032714844000,16.4253501892089840,33.5002784729003900,39537
1450364954,249.1100006103515600,16.5671997070312500,36.2388992309570300,216.8652038574218800,360.9429931640625000,16.6229705810546880,33.4764213562011700,41393
1450364996,245.4700012207031200,16.6548995971679700,36.2557983398437500,217.3325958251953000,359.6859130859375000,16.6619491577148440,33.4332199096679700,14939
1450365017,243.6399993896484400,16.6816997528076170,36.2598991394043000,217.5491027832031200,358.6835937500000000,16.6930408477783200,33.4071197509765600,1344
1450365040,241.6799926757812500,16.8143005371093750,36.2841987609863300,217.0561981201172000,354.3364868164062500,16.8278007507324220,33.3712692260742200,60444
1450365091,237.4900054931640600,16.8759002685546880,36.2855987548828100,217.5599060058593800,352.7182006835937500,16.8779506683349600,33.3213005065918000,25751
1450365112,235.7400054931640600,16.8910999298095700,36.2862014770507800,217.7882995605468800,352.1252136230469000,16.8963203430175780,33.3009300231933600,63991
1450365164,231.2299957275390600,17.0506992340087900,36.3092002868652340,217.8961944580078000,345.8364868164062500,17.0911102294921880,33.2057418823242200,40964
1450365207,227.6600036621093800,17.1816005706787100,36.3315010070800800,219.3386993408203000,343.1065063476562500,17.1756305694580080,33.0906906127929700,36047
1450365257,223.5099945068359400,17.0426006317138670,36.2729988098144500,223.9425048828125000,347.6918945312500000,17.0336494445800780,32.9154090881347660,21741
1450365310,219.2299957275390600,16.8838005065917970,36.1894989013671900,233.1896972656250000,352.2694091796875000,16.8918495178222660,32.5149612426757800,55448
1450365331,217.5299987792968800,16.8717994689941400,36.1841011047363300,235.3126068115234400,352.5333862304687500,16.8836708068847660,32.4150505065918000,21729
1450365381,213.4400024414062500,16.8675994873046880,36.1655998229980500,240.5744934082031200,352.6029052734375000,16.8815193176269530,32.1635398864746100,46667
1450365402,211.7200012207031200,16.9120006561279300,36.1782989501953100,241.9620056152343800,349.2235107421875000,16.9862194061279300,32.0510215759277340,49663
1450365484,205.3699951171875000,17.0310001373291000,36.1682014465332000,250.7998046875000000,347.5310974121094000,17.0386295318603500,31.6214408874511720,383
1450365526,202.2500000000000000,17.0487995147705080,36.1664009094238300,254.1717071533203000,347.0033874511719000,17.0549793243408200,31.4640693664550780,3535
1450365647,191.9900054931640600,17.0762004852294920,36.1684989929199200,256.7387084960937500,345.8620910644531000,17.0903205871582030,31.3353595733642580,44704
1450365670,189.7100067138672000,17.1254005432128900,36.1817016601562500,256.5690002441406000,344.3505859375000000,17.1371192932128900,31.3221302032470700,3460
1450365691,187.7400054931640600,17.1079006195068360,36.1705017089843750,256.6484069824219000,345.6325073242187500,17.0974292755126950,31.3362007141113280,51374
1450365713,185.6100006103515600,17.0830993652343750,36.1604995727539060,256.8136901855469000,345.8309020996094000,17.0912799835205080,31.3318595886230470,41342
1450365734,183.5700073242187500,17.0986003875732420,36.1608009338378900,256.6626892089844000,344.0567016601562500,17.1462192535400400,31.3139591217041000,15553
1450365776,179.6699981689453000,17.2469997406005860,36.1890983581543000,256.1083068847656000,340.7434997558594000,17.2487697601318360,31.2929306030273440,6503
1450365799,177.3200073242187500,17.2574005126953120,36.1932983398437500,255.7904052734375000,340.2893981933594000,17.2628192901611330,31.3007202148437500,27140
1450365821,175.1900024414062500,17.3099002838134770,36.2067985534668000,254.7397003173828000,337.3163146972656000,17.3548202514648440,31.3064098358154300,36418
1450365842,173.1499938964843800,17.3778991699218750,36.2196006774902340,254.0843963623047000,336.4581909179687500,17.3813591003417970,31.3234596252441400,11917
1450365863,171.1199951171875000,17.3841991424560550,36.2220001220703100,253.6932067871093800,336.1380920410156000,17.3912696838378900,31.3363800048828120,43843
1450365884,169.1399993896484400,17.3871002197265620,36.2234001159668000,253.3719024658203000,335.6520080566406000,17.4062995910644530,31.3441390991210940,48125
1450365929,164.6399993896484400,17.4834003448486330,36.2402992248535160,252.0018005371093800,332.9863891601562500,17.4887504577636720,31.3685398101806640,53953
1450365950,162.4400024414062500,17.5186996459960940,36.2450981140136700,251.9425048828125000,331.8942871093750000,17.5225200653076170,31.3562908172607420,50269
1450365971,160.2799987792968800,17.5261001586914060,36.2438011169433600,251.9738006591797000,330.8042907714844000,17.5562191009521500,31.3401393890380860,33430
1450365992,158.1499938964843800,17.5820999145507800,36.2631988525390600,251.9718933105468800,329.8020935058594000,17.5872097015380860,31.3265495300292970,5678
1450366013,155.9900054931640600,17.6054000854492200,36.2666015625000000,251.9841003417968800,329.0288085937500000,17.6111106872558600,31.3154907226562500,16306
1450366132,144.5599975585937500,17.6436996459960940,36.2659988403320300,253.8020019531250000,327.9443054199219000,17.6446399688720700,31.2204704284667970,47908
1450366184,140.4700012207031200,17.6916999816894530,36.2794990539550800,253.1851043701172000,326.9634094238281000,17.6749591827392580,31.2343101501464840,37723
1450366264,134.2500000000000000,17.8034000396728500,36.2994003295898440,253.1806030273437500,322.7821044921875000,17.8041706085205080,31.1778202056884770,28768
1450366383,124.0899963378906200,17.9228992462158200,36.3152008056640600,253.9667968750000000,318.0050048828125000,17.9517402648925780,31.0789604187011720,21123
1450366404,122.0199966430664000,17.9794006347656250,36.3279991149902340,254.4075012207031200,317.2492980957031000,17.9750804901123050,31.0495090484619140,12009
1450366448,117.6399993896484400,17.9801998138427730,36.3277015686035160,254.9315032958984400,316.9494934082031000,17.9843406677246100,31.0224990844726560,986
1450366469,115.5000000000000000,17.9867000579834000,36.3286018371582000,255.0019989013672000,316.7716979980469000,17.9898300170898440,31.0168590545654300,58568